COMPANY RECORD · MIAMI-DADE COUNTY, FL
Go Solar Power LLC — permit history in Miami-Dade County, FL
Go Solar Power LLC appears on 65 Miami-Dade County permit records from 2024 through 2026, all of them electrical.
Permit categories
| Category | Permits | Share |
|---|---|---|
| Electrical | 65 | 100% |
Activity by year
| Year | Permits issued |
|---|---|
| 2024 | 40 |
| 2025 | 20 |
| 2026 | 5 |
Busiest year on record: 2024, with 40 permits. One project can account for several filings, so read this as filing activity rather than workload.
Where they worked
| Address in source | Most recent permit |
|---|---|
| 225 SW 87 AVE | 2026-06-25 |
| 14424 SW 20 ST | 2026-05-04 |
| 17500 SW 153 PATH | 2025-11-27 |
| 16735 SW 99 CT | 2025-10-23 |
| 16644 SW 59 TER | 2025-10-15 |
| 14675 S BISCAYNE RIVER DR | 2025-09-08 |
| 14961 SW 147 CT | 2025-07-31 |
| 9815 SW 140 ST | 2025-01-29 |
| 12301 NW 18 PL | 2025-01-23 |
| 12640 SW 18 ST | 2025-01-16 |
| 20505 SW 122 AVE | 2025-01-14 |
| 14875 SW 212 ST | 2025-01-07 |
| 11282 SW 226 ST | 2024-11-07 |
| 17442 SW 266 TER 1 | 2024-11-06 |
37 distinct addresses on record; the 14 most recent are shown. Declared value on record runs from $500 to $122,548, median $20,412. Addresses appear as the authority published them. A permit is a filing at an address, not a completed job there.
Permits on record
65 permits; open the 50 most recent
| Permit | Issued | Category | Address in source | Scope as filed | Declared value |
|---|---|---|---|---|---|
| 2026068216 | 2026-08-28 | Electrical | ELEC REPAIR PERMIT | $500 | |
| 2026054583 | 2026-06-25 | Electrical | 225 SW 87 AVE | ROOF SOLAR SYSTEM | $59,212 |
| 2026050764 | 2026-06-08 | Electrical | 225 SW 87 AVE | ROOF SOLAR SYSTEM | $59,212 |
| 2026043426 | 2026-05-04 | Electrical | 14424 SW 20 ST | REINSTALL PV | $13,475 |
| 2026039009 | 2026-04-14 | Electrical | 14424 SW 20 ST | REINSTALL | $13,475 |
| 2026012173 | 2025-11-27 | Electrical | 17500 SW 153 PATH | ROOF MOUNTE SOLAR | $77,427 |
| 2026010791 | 2025-11-20 | Electrical | 17500 SW 153 PATH | ROOF MOUNTE SOLAR | $77,427 |
| 2026005241 | 2025-10-23 | Electrical | 16735 SW 99 CT | RFMNT SLR | $66,594 |
| 2026003257 | 2025-10-15 | Electrical | 16644 SW 59 TER | SOLAR PANEL | $97,390 |
| 2026001289 | 2025-10-06 | Electrical | 16644 SW 59 TER | SOLAR PANEL | $97,390 |
| 2026000618 | 2025-10-02 | Electrical | 16735 SW 99 CT | RFMNT SLR | $66,594 |
| 2025070479 | 2025-09-08 | Electrical | 14675 S BISCAYNE RIVER DR | NEW PV SOLAR SYST | $35,015 |
| 2025070294 | 2025-09-08 | Electrical | 14675 S BISCAYNE RIVER DR | NEW PV SOLAR SYST | $35,015 |
| 2025062289 | 2025-07-31 | Electrical | 14961 SW 147 CT | ROOF MOUNTED SOLAR | $99,000 |
| 2025061808 | 2025-07-30 | Electrical | 14961 SW 147 CT | ROOF MOUNTED SOLAR | $99,000 |
| 2025021764 | 2025-01-29 | Electrical | 9815 SW 140 ST | SOLAR PANEL-ROOF | $122,548 |
| 2025021638 | 2025-01-28 | Electrical | 9815 SW 140 ST | SOLAR PANEL-ROOF | $122,548 |
| 2025020658 | 2025-01-23 | Electrical | 12301 NW 18 PL | PV SYSTEM | $15,050 |
| 2025019582 | 2025-01-16 | Electrical | 12640 SW 18 ST | BATTERY INSTALL. | $500 |
| 2025018810 | 2025-01-14 | Electrical | 20505 SW 122 AVE | GRND MNT/ROOF MNT | $500 |
| 2025018809 | 2025-01-14 | Electrical | 20505 SW 122 AVE | GROUND MOUNT | $500 |
| 2025018606 | 2025-01-13 | Electrical | 20505 SW 122 AVE | GROUND MT SOLAR | $121,972 |
| 2025018008 | 2025-01-08 | Electrical | 20505 SW 122 AVE | ROOF MOUNT SOLAR PV | $121,972 |
| 2025017578 | 2025-01-07 | Electrical | 14875 SW 212 ST | PHOTOVOLTAIC SYSTEM | $109,147 |
| 2025017536 | 2025-01-06 | Electrical | 14875 SW 212 ST | PHOTOVOLTAIC SYSTEM | $109,147 |
| 2025011806 | 2024-12-02 | Electrical | 12301 NW 18 PL | PV SYSTEM | $15,050 |
| 2025007726 | 2024-11-07 | Electrical | 11282 SW 226 ST | SOLAR PV SYSTEM | $40,030 |
| 2025007263 | 2024-11-06 | Electrical | 17442 SW 266 TER 1 | PV SOLAR SYSTEM | $21,560 |
| 2025006242 | 2024-10-31 | Electrical | 17442 SW 266 TER 1 | PV SOLAR SYSTEM | $21,560 |
| 2025006069 | 2024-10-31 | Electrical | 14280 SW 19 TER | SOLAR PV/ ELEC 01 | $57,713 |
| 2025004157 | 2024-10-22 | Electrical | 14280 SW 19 TER | SOLAR PV SYSTEM | $57,713 |
| 2025002094 | 2024-10-11 | Electrical | 20255 SW 122 AVE | POWER TO PANEL PV | $21,384 |
| 2025001197 | 2024-10-07 | Electrical | 20255 SW 122 AVE | SOLAR PANELS | $21,384 |
| 2025000446 | 2024-10-02 | Electrical | 20005 SW 122 AVE | SOLAR PV SYSTEM | $17,610 |
| 2025000433 | 2024-10-02 | Electrical | 20255 SW 122 AVE (12) | ELEC POWER TO SOLAR | $21,384 |
| 2025000393 | 2024-10-02 | Electrical | 12025 SW 206 ST | BLDG 4 SOLAR PANELS | $7,776 |
| 2025000421 | 2024-10-02 | Electrical | 20205 SW 122 AVE | ELEC | $13,608 |
| 2025000440 | 2024-10-02 | Electrical | 20565 SW 122 AVE | BLDG 6 SOLAR PANEL | $15,552 |
| 2025000152 | 2024-10-01 | Electrical | 20535 SW 122 AVE | SOLAR PHOTOVOLTAIC | $12,648 |
| 2024076595 | 2024-09-30 | Electrical | 20355 SW 122 AVE | PV SOLAR SYSTEM | $11,664 |
| 2024076499 | 2024-09-30 | Electrical | 20155 SW 122 AVE 14 | SOLAR PV | $7,776 |
| 2024076456 | 2024-09-30 | Electrical | 12065 SW 206 ST | ROOF SOLAR PANEL | $17,610 |
| 2024076452 | 2024-09-30 | Electrical | 12045 SW 206 ST | SOLAR PANEL ROOF | $17,610 |
| 2024076416 | 2024-09-30 | Electrical | 20455 SW 122 AVE | BLDG 8 SOLAR PANEL | $7,776 |
| 2024076505 | 2024-09-30 | Electrical | 20105 SW 122 AVE | PV SOLAR PANEL | $20,412 |
| 2024076476 | 2024-09-30 | Electrical | 20305 SW 122 AVE 11 | SOLAR PANEL ROOF | $7,776 |
| 2024076431 | 2024-09-30 | Electrical | 12005 SW 206 ST | SOLAR PANEL | $7,776 |
| 2024076596 | 2024-09-30 | Electrical | 20005 SW 122 AVE BLDG 16 | SOLAR PHOTOVOLTAIC | $11,664 |
| 2024076405 | 2024-09-30 | Electrical | 20405 SW 122 AVE | SOLAR PANEL-ROOF | $7,776 |
| 2024076467 | 2024-09-30 | Electrical | 12085 SW 206 ST | $7,776 |
Fields appear as the issuing authority published them, including spelling and blanks. Scope text is the applicant's description of intended work, not an inspection finding.
Source and limits
Public Miami-Dade County permit records through 2026, counted by distinct permit number. This is a historical filing record: it cannot show current backlog, pricing, crew availability, licensing or insurance, and a quiet period may only mean work was filed elsewhere. Confirm anything commercial with the company and with the issuing authority before acting. How we build these records, and what we withhold →
